Waarnemingen

Advertentie
Mijn weer
Greifswald, Duitsland (10184): temperatuur & dauwpunt: 11.12.2018 20:00:00 - 17.12.2018 20:00:00 (CET)Greifswald, Duitsland (10184): temperatuur 5cm & temperatuur -5cm: 11.12.2018 20:00:00 - 17.12.2018 20:00:00 (CET)Greifswald, Duitsland (10184): temperatuur -20cm & temperatuur -100cm: 11.12.2018 20:00:00 - 17.12.2018 20:00:00 (CET)Greifswald, Duitsland (10184): windsnelheid & windstoten: 11.12.2018 20:00:00 - 17.12.2018 20:00:00 (CET)Greifswald, Duitsland (10184): windrichting: 11.12.2018 20:00:00 - 17.12.2018 20:00:00 (CET)Greifswald, Duitsland (10184): luchtdruk: 11.12.2018 20:00:00 - 17.12.2018 20:00:00 (CET)Greifswald, Duitsland (10184): zicht: 11.12.2018 20:00:00 - 17.12.2018 20:00:00 (CET)Greifswald, Duitsland (10184): Zonneschijnduur: 11.12.2018 20:00:00 - 17.12.2018 20:00:00 (CET)Greifswald, Duitsland (10184): neerslag: 11.12.2018 20:00:00 - 17.12.2018 20:00:00 (CET)
Datum & Tijd tt [°C] td [°C] tt 5cm [°C] tt -5cm [°C] tt -20cm [°C] tt -100cm [°C] ff [km/u] ff [kn] fx [km/u] fx [kn] dd ppp [hPa] vv [km] sd [min] rr [mm]
17.12.2018 20:00:00 -0,2 -2,1 -0,4 0,1 1,2 6,4 6 4 13 7 ZO 1024,1 3,8 0 0,0
17.12.2018 19:00:00 -0,3 -2,3 -0,6 0,1 1,2 6,4 7 4 13 7 ZZO 1023,6 4,3 0 0,0
17.12.2018 18:00:00 -0,2 -2,5 -0,5 0,1 1,2 6,4 7 4 12 7 ZZO 1023,3 5 0 0,0
17.12.2018 17:00:00 -0,1 -2,8 -0,4 0,1 1,2 6,4 6 3 14 8 ZZO 1022,9 5 0 0,0
17.12.2018 16:00:00 0,0 -3,1 -0,4 0,1 1,2 6,4 8 4 11 6 ZO 1022,2 6 0 0,0
17.12.2018 15:00:00 0,0 -3,2 -0,2 0,1 1,2 6,4 5 3 10 6 ZZO 1021,7 6 0 0,0
17.12.2018 14:00:00 -0,1 -3,3 0,0 0,1 1,2 6,4 6 3 10 6 O 1021,2 6 0 0,0
17.12.2018 13:00:00 -0,3 -3,8 -0,2 0,1 1,2 6,4 6 3 10 6 ZO 1020,8 6 14 0,0
17.12.2018 12:00:00 -0,3 -3,5 -0,6 0,1 1,2 6,4 6 3 10 5 ZO 1020,7 7 59 0,0
17.12.2018 11:00:00 -1,2 -3,8 -2,3 0,1 1,2 6,4 5 3 9 5 ZZO 1020,8 6 1 0,0
17.12.2018 10:00:00 -1,1 -3,8 -1,7 0,1 1,2 6,4 5 3 9 5 ZO 1020,5 7 0 0,0
17.12.2018 09:00:00 -1,2 -3,9 -1,7 0,1 1,2 6,5 5 3 8 5 ZO 1019,8 7 0 0,0
17.12.2018 08:00:00 -1,2 -3,9 -1,7 0,1 1,3 6,5 5 3 9 5 ZZO 1019,0 7 0 0,0
17.12.2018 07:00:00 -1,3 -4,1 -1,8 0,1 1,3 6,5 6 4 9 5 OZO 1018,4 7 0 0,0
17.12.2018 06:00:00 -1,2 -4,2 -1,6 0,1 1,3 6,5 6 3 15 8 ZZO 1017,9 8 0 0,0
17.12.2018 05:00:00 -1,2 -4,3 -1,7 0,1 1,3 6,5 8 4 13 7 ZZO 1017,6 8 0 0,0
17.12.2018 04:00:00 -1,4 -4,3 -2,6 0,1 1,3 6,5 7 4 14 7 ZZO 1017,2 8 0 0,0
17.12.2018 03:00:00 -0,8 -4,2 -1,3 0,2 1,3 6,5 8 4 16 9 ZZO 1017,1 9 0 0,0
17.12.2018 02:00:00 -0,7 -4,3 -1,3 0,2 1,3 6,5 6 4 16 8 ZZO 1016,8 9 0 0,0
17.12.2018 01:00:00 -0,7 -4,4 -1,1 0,2 1,3 6,5 7 4 13 7 ZZO 1016,7 9 0 0,0
17.12.2018 00:00:00 -0,7 -4,6 -1,1 0,2 1,3 6,5 6 4 16 8 ZO 1016,4 9 0 0,0
16.12.2018 23:00:00 -0,7 -4,5 -1,1 0,2 1,4 6,5 7 4 14 8 ZO 1016,2 9 0 0,0
16.12.2018 22:00:00 -0,6 -4,7 -1,0 0,2 1,4 6,5 10 5 19 10 ZO 1016,2 9 0 0,0
16.12.2018 21:00:00 -0,5 -4,8 -0,9 0,2 1,4 6,6 10 6 21 11 ZO 1015,9 11 0 0,0
16.12.2018 20:00:00 -0,5 -4,8 -0,9 0,2 1,4 6,6 10 5 20 11 ZO 1015,7 11 0 0,0
16.12.2018 19:00:00 -0,4 -4,5 -0,7 0,2 1,4 6,6 9 5 18 10 ZO 1015,8 9 0 0,0
16.12.2018 18:00:00 -0,3 -4,6 -0,7 0,2 1,4 6,6 11 6 21 11 ZO 1015,9 8 0 0,0
16.12.2018 17:00:00 -0,2 -4,6 -0,6 0,2 1,4 6,6 12 6 24 13 ZZO 1015,6 9 0 0,0
16.12.2018 16:00:00 -0,1 -4,3 -0,5 0,2 1,4 6,6 12 6 21 11 ZO 1015,7 9 0 0,0
16.12.2018 15:00:00 0,0 -4,7 -0,4 0,2 1,4 6,6 14 7 23 13 ZO 1016,0 10 0 0,0
16.12.2018 14:00:00 0,0 -4,2 -0,3 0,2 1,5 6,6 13 7 24 13 OZO 1016,2 9 0 0,0
16.12.2018 13:00:00 0,1 -4,8 -0,2 0,2 1,5 6,6 11 6 26 14 ZO 1017,0 12 0 0,0
16.12.2018 12:00:00 0,1 -5,5 -0,1 0,2 1,5 6,6 13 7 31 17 ZO 1017,7 13 0 0,0
16.12.2018 11:00:00 0,0 -4,7 -0,5 0,2 1,5 6,6 12 6 30 16 ZO 1018,8 14 0 0,0
16.12.2018 10:00:00 -1,0 -4,2 -1,5 0,2 1,6 6,6 10 5 22 12 OZO 1019,0 8 7 0,0
16.12.2018 09:00:00 -1,0 -5,0 -2,9 0,3 1,6 6,7 13 7 23 12 OZO 1019,3 10 0 0,0
16.12.2018 08:00:00 -0,9 -4,8 -2,7 0,4 1,6 6,7 15 8 34 18 ZO 1019,8 9 0 0,0
16.12.2018 07:00:00 -0,6 -3,9 -1,3 0,4 1,6 6,7 14 7 30 16 ZO 1020,6 8 0 0,0
16.12.2018 06:00:00 -0,5 -3,5 -1,2 0,4 1,6 6,7 13 7 34 19 ZO 1021,4 5 0 0,0
16.12.2018 05:00:00 -0,5 -2,9 -1,5 0,4 1,7 6,7 15 8 23 13 OZO 1021,7 5 0 0,0
16.12.2018 04:00:00 -1,5 -2,7 -4,2 0,5 1,7 6,7 9 5 16 9 O 1022,4 4,0 0 0,0
16.12.2018 03:00:00 -0,7 -1,9 -2,4 0,5 1,7 6,7 11 6 18 10 OZO 1023,2 4,8 0 0,0
16.12.2018 02:00:00 0,1 -1,2 -0,8 0,5 1,8 6,7 11 6 16 9 OZO 1023,8 4,7 0 0,0
16.12.2018 01:00:00 0,3 -1,0 -0,5 0,5 1,8 6,7 11 6 21 11 OZO 1024,4 5 0 0,0
16.12.2018 00:00:00 0,3 -1,1 -0,2 0,5 1,8 6,7 13 7 19 10 OZO 1025,2 5 0 0,0
15.12.2018 23:00:00 0,1 -1,0 -0,6 0,6 1,9 6,7 10 6 14 8 O 1026,0 4,3 0 0,0
15.12.2018 22:00:00 0,0 -0,9 -0,5 0,7 1,9 6,8 7 4 14 8 OZO 1026,6 5 0 0,0
15.12.2018 21:00:00 0,0 -1,3 -0,4 0,8 2,0 6,8 8 5 12 6 OZO 1027,1 6 0 0,0
15.12.2018 20:00:00 0,1 -1,4 -0,2 0,9 2,0 6,8 5 3 9 5 ZO 1027,7 10 0 0,0
15.12.2018 19:00:00 -0,1 -1,5 -0,4 0,9 2,0 6,8 2 1 3 2 OZO 1028,0 8 0 0,0
15.12.2018 18:00:00 0,1 -1,6 -0,2 1,0 2,1 6,8 0 0 4 2 N 1028,5 9 0 0,0
15.12.2018 17:00:00 0,4 -1,9 0,0 1,1 2,1 6,8 2 1 9 5 WZW 1028,9 12 0 0,0
15.12.2018 16:00:00 0,3 -2,1 0,1 1,3 2,0 6,8 7 4 11 6 W 1029,1 15 0 0,0
15.12.2018 15:00:00 0,5 -2,3 0,4 1,5 2,0 6,8 6 4 13 7 NW 1029,6 15 0 0,0
15.12.2018 14:00:00 0,8 -2,1 0,7 1,5 1,9 6,8 4 2 5 3 NW 1029,9 15 0 0,0
15.12.2018 13:00:00 0,8 -2,1 0,8 1,4 1,8 6,8 3 1 6 4 NW 1030,1 17 0 0,0
15.12.2018 12:00:00 0,7 -2,3 0,8 1,1 1,7 6,8 5 3 7 4 NW 1030,6 19 0 0,0
15.12.2018 11:00:00 0,3 -2,8 0,2 0,6 1,7 6,8 3 2 4 2 NW 1031,2 18 0 0,0
15.12.2018 10:00:00 -0,1 -2,9 -0,3 0,5 1,7 6,9 2 1 5 3 W 1031,4 25 0 0,0
15.12.2018 09:00:00 -0,6 -2,5 -0,8 0,5 1,7 6,9 3 1 5 3 NW 1031,2 25 0 0,0
15.12.2018 08:00:00 -0,9 -2,3 -1,3 0,5 1,8 6,9 3 2 4 2 N 1031,0 14 0 0,0
15.12.2018 07:00:00 -0,4 -2,8 -1,0 0,5 1,8 6,9 2 1 3 2 WNW 1031,0 19 0 0,0
15.12.2018 06:00:00 -0,5 -2,5 -1,0 0,4 1,8 6,9 2 1 5 3 ZZO 1030,8 18 0 0,0
15.12.2018 05:00:00 -0,3 -3,2 -1,0 0,4 1,8 6,9 5 3 7 4 ZO 1030,7 18 0 0,0
15.12.2018 04:00:00 -0,2 -3,2 -0,7 0,4 1,8 6,9 5 3 10 5 ZO 1030,7 16 0 0,0
15.12.2018 03:00:00 -0,2 -3,2 -0,9 0,4 1,9 6,9 8 4 11 6 O 1030,9 19 0 0,0
15.12.2018 02:00:00 -0,1 -3,4 -0,7 0,4 1,9 6,9 3 2 12 6 O 1030,6 18 0 0,0
15.12.2018 01:00:00 -0,2 -2,2 -0,7 0,5 2,0 6,9 8 5 11 6 OZO 1030,7 12 0 0,0
15.12.2018 00:00:00 0,0 -2,5 -0,7 0,6 2,0 6,9 5 3 11 6 OZO 1030,6 13 0 0,0
14.12.2018 23:00:00 -0,2 -2,4 -0,6 0,6 2,1 6,9 5 3 8 4 O 1030,5 11 0 0,0
14.12.2018 22:00:00 -0,1 -1,9 -0,7 0,6 2,1 6,9 2 1 9 5 OZO 1030,4 11 0 0,0
14.12.2018 21:00:00 0,1 -2,1 -0,6 0,7 2,1 6,9 5 3 14 7 O 1030,3 12 0 0,0
14.12.2018 20:00:00 0,2 -2,6 -0,3 0,7 2,2 7,0 8 4 15 8 ZZO 1029,9 12 0 0,0
14.12.2018 19:00:00 0,2 -2,6 -0,3 0,8 2,3 7,0 9 5 14 8 ZZO 1029,8 12 0 0,0
14.12.2018 18:00:00 0,3 -2,3 -0,3 0,9 2,3 7,0 10 5 16 8 O 1029,7 11 0 0,0
14.12.2018 17:00:00 0,2 -2,4 -0,3 1,0 2,4 7,0 9 5 14 8 O 1029,4 12 0 0,0
14.12.2018 16:00:00 0,2 -2,3 -0,5 1,1 2,4 7,0 7 4 14 7 OZO 1029,0 13 0 0,0
14.12.2018 15:00:00 0,2 -2,3 -0,3 1,3 2,4 7,0 8 4 16 9 ZO 1028,7 12 0 0,0
14.12.2018 14:00:00 0,2 -2,1 -0,3 1,3 2,4 7,0 10 6 17 9 OZO 1028,5 13 0 0,0
14.12.2018 13:00:00 0,1 -2,0 -0,4 1,2 2,4 7,0 11 6 21 11 OZO 1028,3 8 0 0,0
14.12.2018 12:00:00 0,6 -2,0 0,0 1,2 2,4 7,0 14 8 23 13 OZO 1028,1 12 0 0,0
14.12.2018 11:00:00 1,0 -3,3 -0,1 1,2 2,5 7,0 15 8 31 17 O 1027,8 35 0 0,0
14.12.2018 10:00:00 1,0 -2,1 -0,1 1,2 2,5 7,0 15 8 22 12 O 1027,7 25 0 0,0
14.12.2018 09:00:00 0,8 -1,2 0,0 1,2 2,5 7,0 8 4 13 7 OZO 1027,1 11 0 0,0
14.12.2018 08:00:00 0,7 -1,0 0,0 1,2 2,5 7,0 7 4 17 9 OZO 1026,6 15 0 0,0
14.12.2018 07:00:00 0,5 -0,3 0,0 1,3 2,6 7,0 7 4 12 7 ONO 1026,5 8 0 0,0
14.12.2018 06:00:00 0,5 -0,2 0,0 1,3 2,6 7,0 4 2 9 5 O 1026,2 13 0 0,0
14.12.2018 05:00:00 0,3 -0,2 -0,1 1,3 2,6 7,0 4 2 9 5 N 1026,1 8 0 0,0
14.12.2018 04:00:00 0,5 -0,1 -0,1 1,3 2,7 7,0 6 3 8 5 Z 1026,0 10 0 0,0
14.12.2018 03:00:00 0,4 0,3 -0,1 1,2 2,7 7,0 2 1 4 2 WZW 1026,1 6 0 0,0
14.12.2018 02:00:00 0,4 0,0 -0,1 1,3 2,8 7,1 2 1 8 4 N 1026,0 8 0 0,0
14.12.2018 01:00:00 0,4 -0,1 -0,1 1,2 2,8 7,1 3 1 6 4 NNO 1025,9 8 0 0,0
14.12.2018 00:00:00 0,5 0,1 -0,1 1,2 2,9 7,1 6 3 8 4 NNW 1025,9 5 0 0,0
13.12.2018 23:00:00 0,4 0,0 -0,1 1,4 3,0 7,1 3 2 9 5 N 1026,0 8 0 0,0
13.12.2018 22:00:00 0,5 0,0 -0,3 1,4 3,2 7,1 4 2 11 6 ZO 1025,6 9 0 0,0
13.12.2018 21:00:00 0,7 0,2 0,0 1,7 3,3 7,1 0 0 18 10 N 1025,5 10 0 0,5
13.12.2018 20:00:00 1,2 0,6 1,0 2,2 3,4 7,1 5 3 18 10 ZZW 1025,6 8 0 0,0
13.12.2018 19:00:00 1,2 0,8 0,9 2,3 3,4 7,1 2 1 5 3 ZZO 1025,3 10 0 0,0
13.12.2018 18:00:00 1,4 1,0 1,2 2,5 3,5 7,1 5 3 13 7 O 1025,4 10 0 0,8
13.12.2018 17:00:00 1,9 1,0 1,7 2,8 3,5 7,1 8 4 14 8 N 1025,5 8 0 0,0
13.12.2018 16:00:00 2,4 1,0 2,0 3,1 3,5 7,1 5 3 11 6 N 1025,5 26 0 0,0
13.12.2018 15:00:00 2,2 0,7 1,9 3,3 3,4 7,1 2 1 16 9 WZW 1025,7 36 0 0,0
13.12.2018 14:00:00 2,6 0,7 2,5 3,6 3,2 7,1 16 8 27 15 ONO 1025,7 9 0 0,0
13.12.2018 13:00:00 3,8 0,5 3,6 3,3 3,1 7,1 6 3 16 9 O 1025,9 40 0 0,0
13.12.2018 12:00:00 3,4 0,9 3,0 2,9 2,9 7,1 9 5 20 11 O 1026,1 40 0 0,0
13.12.2018 11:00:00 3,5 0,8 3,3 2,4 2,8 7,1 13 7 22 12 O 1026,3 34 10 0,0
13.12.2018 10:00:00 2,6 1,5 2,0 1,4 2,8 7,1 12 6 27 15 O 1026,4 30 0 0,0
13.12.2018 09:00:00 0,7 0,4 -0,4 0,8 2,9 7,1 5 3 10 6 O 1026,3 8 0 0,0
13.12.2018 08:00:00 2,4 1,2 1,1 1,2 2,9 7,1 8 4 26 14 O 1026,4 22 0 0,0
13.12.2018 07:00:00 2,6 1,9 1,8 1,1 3,0 7,1 11 6 17 9 ONO 1026,0 30 0 0,1
13.12.2018 06:00:00 1,8 1,1 1,1 1,0 3,2 7,1 9 5 16 8 N 1026,5 25 0 0,0
13.12.2018 05:00:00 1,1 0,3 -0,1 1,1 3,4 7,1 10 6 18 10 NNW 1026,6 40 0 0,0
13.12.2018 04:00:00 0,4 -0,8 -2,4 1,2 3,6 7,1 8 4 13 7 NNW 1027,0 50 0 0,0
13.12.2018 03:00:00 1,5 -0,1 -0,2 1,6 3,8 7,2 9 5 24 13 N 1027,4 50 0 0,0
13.12.2018 02:00:00 1,9 0,2 0,5 2,4 4,0 7,2 12 7 25 13 NNO 1027,5 50 0 0,0
13.12.2018 01:00:00 2,8 1,0 2,2 3,1 4,0 7,2 14 7 33 18 NNO 1027,9 35 0 0,0
13.12.2018 00:00:00 3,7 0,9 3,0 3,3 4,0 7,2 16 9 30 16 NO 1027,9 40 0 0,0
12.12.2018 23:00:00 3,9 1,1 3,3 3,3 4,1 7,2 18 10 29 16 NO 1028,0 65 0 0,0
12.12.2018 22:00:00 3,8 1,9 3,2 3,4 4,1 7,2 17 9 33 18 NO 1028,0 50 0 0,0
12.12.2018 21:00:00 3,7 2,5 3,1 3,4 4,1 7,2 18 10 34 18 NO 1027,8 45 0 0,5
12.12.2018 20:00:00 3,7 3,0 3,3 3,3 4,1 7,2 22 12 34 18 ONO 1027,8 1,5 0 1,3
12.12.2018 19:00:00 4,0 2,3 3,1 3,2 4,2 7,2 18 10 32 18 ONO 1027,7 40 0 0,3
12.12.2018 18:00:00 3,5 2,2 2,7 3,2 4,3 7,2 18 10 34 19 NO 1027,5 18 0 0,0
12.12.2018 17:00:00 2,4 1,7 0,4 3,4 4,4 7,2 9 5 16 8 NO 1027,2 30 0 0,0
12.12.2018 16:00:00 3,0 2,2 2,4 4,0 4,5 7,2 9 5 14 8 NO 1026,9 12 0 0,0
12.12.2018 15:00:00 4,0 2,7 3,2 4,7 4,4 7,2 10 5 20 11 NNO 1026,6 35 0 0,0
12.12.2018 14:00:00 4,6 2,4 4,5 5,0 4,2 7,2 12 7 20 11 NO 1026,3 40 5 0,0
12.12.2018 13:00:00 5,1 2,1 6,3 4,4 4,1 7,2 16 9 35 19 O 1026,1 35 17 0,0
12.12.2018 12:00:00 4,8 2,6 4,4 4,2 4,0 7,2 20 11 41 22 NO 1025,8 40 0 0,0
12.12.2018 11:00:00 5,0 2,6 4,6 3,8 3,9 7,2 23 12 36 19 NO 1025,7 26 0 0,0
12.12.2018 10:00:00 4,8 2,3 4,3 3,4 3,9 7,2 18 10 33 18 NNO 1025,4 40 0 0,0
12.12.2018 09:00:00 4,3 2,1 3,2 3,2 3,9 7,2 15 8 31 17 NNO 1025,0 30 0 0,0
12.12.2018 08:00:00 4,4 2,7 3,5 3,4 3,9 7,2 17 9 32 18 NO 1024,3 30 0 0,0
12.12.2018 07:00:00 4,2 3,0 3,4 3,3 3,8 7,2 17 9 31 17 NO 1024,0 30 0 0,2
12.12.2018 06:00:00 4,1 2,9 3,3 3,2 3,8 7,2 11 6 25 14 N 1023,4 35 0 0,4
12.12.2018 05:00:00 4,0 2,8 3,5 3,1 3,8 7,2 11 6 17 9 N 1023,0 40 0 0,0
12.12.2018 04:00:00 3,7 2,7 3,1 2,8 3,9 7,2 11 6 17 9 NNW 1022,5 45 0 0,1
12.12.2018 03:00:00 3,7 2,4 2,9 3,0 3,9 7,2 11 6 18 10 NNW 1022,3 40 0 0,0
12.12.2018 02:00:00 4,1 3,1 3,4 3,3 3,9 7,2 10 6 32 17 N 1021,4 35 0 0,9
12.12.2018 01:00:00 4,3 3,0 3,6 3,3 3,8 7,2 16 9 25 13 N 1021,0 12 0 0,3
12.12.2018 00:00:00 4,3 2,6 3,5 3,2 3,8 7,2 16 9 27 15 NNW 1020,6 35 0 0,3
11.12.2018 23:00:00 3,8 2,2 3,1 2,9 3,8 7,3 13 7 21 11 NW 1020,1 35 0 0,0
11.12.2018 22:00:00 4,0 2,0 2,8 2,7 3,9 7,3 15 8 24 13 N 1019,8 50 0 0,1
11.12.2018 21:00:00 3,6 1,4 2,6 2,7 4,0 7,3 9 5 21 11 NNW 1019,4 5 0 0,0
11.12.2018 20:00:00 3,7 1,6 2,6 2,7 4,1 7,3 16 9 28 15 N 1018,7 60 0 0,1

tt = temperatuur
td = dauwpunt
tt 5cm = temperatuur 5cm
tt -5cm = temperatuur -5cm
tt -20cm = temperatuur -20cm
tt -100cm = temperatuur -100cm
ff = windsnelheid
fx = windstoten
dd = windrichting
ppp = luchtdruk
vv = zicht
sd = Zonneschijnduur
rr = neerslag

Weerstations in de omgeving